Location: Paddlesworth
(51.1000°N, 1.1333°E)
Time: 13:55:29
(UTC+00:00)

USA 306 - Pass Details

Date: 11 May 2021
Orbit: 565 x 575 km, 54.0° (Epoch: 11 May)

Event Time Altitude Azimuth Distance (km) Brightness Sun altitude
Rises 22:19:42 0° 291° (WNW) 2,775 7.1 -17.9°
Reaches altitude 10° 22:22:16 10° 277° (W) 1,876 5.9 -18.0°
Maximum altitude 22:25:41 24° 224° (SW) 1,210 4.3 -18.2°
Enters shadow 22:26:03 23° 215° (SW) 1,219 4.3 -18.3°
